This is the latest recevied weather packets stored in our database for station/object SQ9NFI-4. If no packets are shown the sender has not sent any weather packets the latest 10 day(s).
| Time | Temp. | Humidity | Pressure | Rain* | Wind** | Luminosity | Snow |
|---|---|---|---|---|---|---|---|
| 1777702516 | 17.22° C | 48% | 1025.7 hPa | 0 mm | - | 309 W/m² | - |
| 1777702216 | 16.11° C | 50% | 1025.7 hPa | 0 mm | - | 297 W/m² | - |
| 1777701916 | 15.56° C | 51% | 1025.7 hPa | 0 mm | - | 282 W/m² | - |
| 1777701616 | 15.56° C | 52% | 1025.7 hPa | 0 mm | - | 263 W/m² | - |
| 1777701316 | 15° C | 58% | 1025.7 hPa | 0 mm | - | 247 W/m² | - |
| 1777701016 | 14.44° C | 58% | 1025.7 hPa | 0 mm | - | 224 W/m² | - |
| 1777700716 | 13.33° C | 61% | 1025.7 hPa | 0 mm | - | 201 W/m² | - |
| 1777700416 | 12.78° C | 64% | 1025.7 hPa | 0 mm | - | 181 W/m² | - |
| 1777700116 | 11.67° C | 65% | 1025.7 hPa | 0 mm | - | 158 W/m² | - |
| 1777699816 | 11.67° C | 65% | 1025.7 hPa | 0 mm | - | 142 W/m² | - |
| 1777699516 | 10.56° C | 68% | 1025.7 hPa | 0 mm | - | 124 W/m² | - |
| 1777699216 | 10° C | 70% | 1025.7 hPa | 0 mm | - | 107 W/m² | - |
| 1777698916 | 9.44° C | 69% | 1025.7 hPa | 0 mm | - | 95 W/m² | - |
| 1777698616 | 8.33° C | 74% | 1025.7 hPa | 0 mm | - | 82 W/m² | - |
| 1777698316 | 7.78° C | 76% | 1025.7 hPa | 0 mm | - | 76 W/m² | - |
| 1777698016 | 6.67° C | 78% | 1025.7 hPa | 0 mm | - | 66 W/m² | - |
| 1777697716 | 6.67° C | 78% | 1025.7 hPa | 0 mm | - | 60 W/m² | - |
| 1777697416 | 6.11° C | 77% | 1025.4 hPa | 0 mm | - | 54 W/m² | - |
| 1777697116 | 6.11° C | 81% | 1025.4 hPa | 0 mm | - | 49 W/m² | - |
| 1777696816 | 5.56° C | 82% | 1025.4 hPa | 0 mm | - | 45 W/m² | - |
| 1777696516 | 5° C | 83% | 1025.4 hPa | 0 mm | - | 41 W/m² | - |
| 1777696216 | 4.44° C | 85% | 1025.4 hPa | 0 mm | - | 37 W/m² | - |
| 1777695916 | 4.44° C | 94% | 1025.4 hPa | 0 mm | - | 34 W/m² | - |
| 1777695616 | 3.33° C | 97% | 1025.4 hPa | 0 mm | - | 31 W/m² | - |
| 1777695316 | 2.78° C | 97% | 1025.4 hPa | 0 mm | - | 29 W/m² | - |
* Rain latest hour (hover to see other rain measurements)
** Current wind speed in m/s (hover to see current wind gust speed)